Terminal Aerodrome Forecast
Issued by NWS

Home | Current Version | Previous Version | Text Only | Print | Product List | Glossary On
Versions: 1 2 3 4 5 6 7 8 9 10 11 12
000
FTUS45 KRIW 031700
TAFCOD
TAF
KCOD 031721Z 0318/0418 03011G18KT P6SM SCT030 BKN120
     FM032000 05007KT P6SM VCSH BKN060
     FM040600 VRB05KT P6SM BKN050
      AMD LTD TO CLD VIS AND WIND=

USA.gov is the U.S. government's official web portal to all federal, state and local government web resources and services.